Tracking 18987 objects as of 26-Feb-2018
HD Live streaming from Space Station
objects crossing your sky now

FENGYUN 1C DEB

Track FENGYUN 1C DEB now!
10-day predictions


NORAD ID: 32438
Int'l Code: 1999-025DBA
Perigee: 752.5 km
Apogee: 807.1 km
Inclination: 99.5 °
Period: 100.3 minutes
Semi major axis: 7150 km
RCS: 0.0074 m2 (small)
Launch date: May 10, 1999
Source: People's Republic of China (PRC)
Launch site: Taiyaun Space Center, China (TSC)

Note: This is SATELLITE DEBRIS
aabbcc
Your satellite tracking list
Your tracking list is empty




NASA's NSSDC Master Catalog

Two Line Element Set (TLE):
1 32438U 99025DBA 18043.80853259  .00000935  00000-0  33878-3 0  9990
2 32438  99.4522  43.7441 0038153 325.8251  34.0476 14.35725722551599
Source of the keplerian elements: AFSPC